Vorticity
12 15 16 12 6 5 8 8 13 7 6 7 7 6 5 4 5 4 3 5 5 6
6 4 0 3 8 6 6 10 10 6 7 6 6 6 5 7 5 4 3 7 7 7
6 4 4 4 8 10 6 9 8 5 6 8 5 7 10 11 7 3 5 7 6 8
-0 10 10 7 7 9 8 10 6 7 8 5 6 9 9 10 6 4 7 7 10 3
29 -6 14 12 3 8 6 6 7 8 11 7 6 8 7 8 6 8 4 8 -3 2
7 12 11 10 5 10 4 7 6 4 7 8 7 7 6 7 4 6 24 18 9 2
11 -2 8 21 4 7 7 4 6 6 9 6 7 5 6 5 7 9 14 19 -12 13
1 60 -17 -8 -8 10 8 5 12 8 6 7 8 4 9 8 5 -12 -18 2 -1 21
5 -18 64 115 -34 15 6 9 11 3 11 11 9 12 5 7 6 13 18 5 10 10
29 0 43 -51 28 9 11 6 10 9 11 12 6 15 -1 2 1 -12 -17 7 -0 21
6 -6 -8 17 -47 39 16 12 10 10 15 -6 20 39 -2 2 13 7 -10 12 8 10
10 9 11 23 17 1 21 6 12 -5 8 20 44 -6 10 -0 4 8 14 10 8 11
5 10 10 19 10 -0 5 7 7 7 -16 38 44 20 27 19 9 23 7 6 6 9
3 5 5 10 8 15 17 17 12 21 -12 -23 88 -16 18 -20 20 9 6 7 15 15
Height
5893 5892 5890 5889 5887 5885 5884 5883 5881 5879 5877 5875 5874 5872 5871 5870 5868 5866 5864 5860 5857 5854
5888 5887 5886 5884 5882 5881 5878 5877 5875 5873 5871 5870 5868 5867 5865 5864 5862 5858 5856 5853 5850 5846
5882 5880 5878 5876 5875 5874 5873 5871 5868 5866 5865 5864 5862 5859 5858 5856 5854 5851 5848 5845 5842 5838
5876 5874 5871 5869 5867 5865 5865 5864 5862 5860 5858 5856 5854 5852 5850 5848 5846 5842 5839 5836 5833 5830
5868 5869 5864 5862 5860 5857 5856 5856 5854 5853 5851 5849 5847 5844 5842 5840 5838 5834 5831 5827 5824 5819
5862 5859 5857 5854 5852 5851 5850 5849 5847 5845 5843 5841 5838 5836 5835 5832 5828 5825 5822 5819 5817 5812
5855 5851 5853 5844 5841 5844 5841 5840 5839 5837 5835 5833 5829 5828 5826 5823 5820 5817 5814 5810 5807 5799
5849 5841 5837 5830 5826 5833 5832 5830 5829 5829 5827 5823 5821 5819 5817 5815 5811 5807 5804 5801 5795 5790
5840 5835 5829 5814 5805 5820 5821 5822 5821 5820 5817 5814 5810 5808 5808 5805 5802 5799 5795 5790 5784 5780
5832 5827 5824 5821 5813 5810 5811 5813 5815 5812 5807 5804 5800 5799 5797 5795 5792 5788 5783 5779 5774 5768
5823 5820 5805 5814 5807 5803 5804 5805 5804 5800 5797 5794 5791 5787 5786 5783 5782 5779 5775 5769 5762 5756
5815 5812 5809 5802 5800 5798 5796 5795 5790 5789 5783 5779 5776 5774 5773 5772 5772 5770 5764 5758 5750 5745
5807 5802 5798 5795 5792 5789 5787 5783 5780 5776 5773 5767 5766 5762 5763 5761 5760 5758 5753 5745 5738 5734
5797 5794 5790 5786 5780 5778 5776 5774 5771 5769 5767 5761 5751 5756 5753 5749 5745 5745 5740 5732 5728 5722